Miscellaneous Local Product
Issued by NWS Hastings, NE

Home | Current Version | Previous Version | Graphics & Text | Print | Product List | Glossary On
Versions: 1 2 3 4 5 6 7 8 9 10 11 12 13 14 15 16 17 18 19 20 21 22 23 24 25 26 27 28 29 30 31 32 33 34 35 36 37 38 39 40 41 42 43 44 45 46 47 48 49 50
000
AXUS43 KGID 212202
MISGRI

GID CWA HOURLY WEATHER ROUNDUP
NATIONAL WEATHER SERVICE HASTINGS NE
500 PM CDT THU MAY 21 2015

NOTE: "FAIR" INDICATES FEW OR NO CLOUDS BELOW 12,000 FEET WITH NO
SIGNIFICANT WEATHER AND/OR OBSTRUCTIONS TO VISIBILITY.

...SOUTH CENTRAL NEBRASKA...

CITY           SKY/WX    TMP DP  RH WIND       PRES   REMARKS
GRAND ISLAND     N/A     65  32  29 CALM      30.23F
HASTINGS       SUNNY     64  36  35 VRB5      30.22F
KEARNEY        SUNNY     63  36  36 CALM      30.23F
ORD            SUNNY     65  32  29 S5        30.20F
YORK           SUNNY     64  41  42 CALM      30.23F
AURORA         SUNNY     65  37  35 S7        30.23F
LEXINGTON      SUNNY     64  39  40 S8        30.22F
HOLDREGE       SUNNY     62  34  35 S5        30.23F
HEBRON         SUNNY     65  32  29 W3        30.24F

...NEBRASKA PANHANDLE...

CITY           SKY/WX    TMP DP  RH WIND       PRES   REMARKS
CHADRON        CLOUDY    58  42  55 SE13      30.16F
ALLIANCE       CLOUDY    56  43  61 S10       30.18F
SCOTTSBLUFF    CLOUDY    56  42  59 S14       30.17F
SIDNEY         CLOUDY    57  44  62 SE18      30.18F

...WESTERN AND NORTH CENTRAL NEBRASKA...

CITY           SKY/WX    TMP DP  RH WIND       PRES   REMARKS
VALENTINE      SUNNY     66  30  26 S10G18    30.19F
AINSWORTH      SUNNY     65  34  31 S8        30.20F
ONEILL         SUNNY     67  35  30 CALM      30.21F
BROKEN BOW     SUNNY     64  37  36 MISG      30.21F
IMPERIAL       CLOUDY    58  43  57 SE12      30.21F
NORTH PLATTE   PTSUNNY   63  41  44 S9        30.21F
MCCOOK         CLOUDY    62  39  42 SE8       30.22F

...EASTERN NEBRASKA...

CITY           SKY/WX    TMP DP  RH WIND       PRES   REMARKS
NORFOLK        SUNNY     71  37  28 SW8       30.18F
SO SIOUX CITY  SUNNY     76  35  22 NW15G22   30.14F
TEKAMAH        SUNNY     77  37  23 W12G20    30.15F
COLUMBUS       SUNNY     70  37  30 S6        30.23F
ALBION         SUNNY     67  35  30 CALM      30.21F
OMAHA EPPLEY   MOSUNNY   73  39  29 W7        30.16F
MILLARD        SUNNY     71  40  32 NW8       30.18F
LINCOLN        SUNNY     69  39  33 SW6       30.21F
NEBRASKA CITY  SUNNY     69  33  26 SW7       30.20F
BEATRICE       SUNNY     67  41  37 NW6       30.23F
FALLS CITY     SUNNY     69  41  36 NW7       30.20F

...NORTHERN KANSAS...

CITY           SKY/WX    TMP DP  RH WIND       PRES   REMARKS
GOODLAND       PTSUNNY   57  44  62 S15G24    30.20F
HILL CITY      MOSUNNY   64  41  42 SE10G17   30.23F
NORTON         CLOUDY    63  34  34 SE10      30.22F
PHILLIPSBURG   SUNNY     66  37  34 SE5       30.23F
SMITH CENTER   SUNNY     64  37  36 SE6       30.24F
HAYS           SUNNY     63  39  42 SE10      30.23F
RUSSELL        SUNNY     63  41  44 MISG      30.22F
CONCORDIA      SUNNY     65  38  36 SE6       30.24F
SALINA         SUNNY     66  40  38 NE9       30.24F
TOPEKA         SUNNY     67  42  40 N3        30.23F



USA.gov is the U.S. government's official web portal to all federal, state and local government web resources and services.